• In Uzbekistan
  • List of Countries
  • For 7 days
  • Water Temperature
  • Satellite Maps
  • Weather Map
  • Weather Widgets
  • user-avatar
    Login

    Hourly Weather Kaprun

    Today, 2 December, Friday

    Time Temperature Precipitation Wind Pressure Humidity
    00:00 -8°C° 0 mm 2 mps 594 mmHg 79%
    01:00 -9°C° 0 mm 3 mps 594 mmHg 80%
    02:00 -9°C° 0 mm 2 mps 593 mmHg 81%
    03:00 -9°C° 0 mm 2 mps 593 mmHg 81%
    04:00 -9°C° 0 mm 2 mps 593 mmHg 82%
    05:00 -9°C° 0 mm 2 mps 592 mmHg 82%
    06:00 -12°C° 0 mm 3 mps 592 mmHg 82%
    07:00 -12°C° 0 mm 3 mps 592 mmHg 81%
    08:00 -10°C° 0 mm 3 mps 592 mmHg 80%
    09:00 -9°C° 0 mm 3 mps 593 mmHg 78%
    10:00 -8°C° 0 mm 3 mps 593 mmHg 76%
    11:00 -7°C° 0 mm 3 mps 594 mmHg 76%
    12:00 -6°C° 0 mm 3 mps 594 mmHg 75%
    13:00 -4°C° 0 mm 2 mps 594 mmHg 74%
    14:00 -5°C° 0.1 mm 2 mps 594 mmHg 78%
    15:00 -6°C° 0.1 mm 2 mps 593 mmHg 83%
    16:00 -7°C° 0.1 mm 2 mps 593 mmHg 88%
    17:00 -8°C° 0.1 mm 2 mps 593 mmHg 89%
    18:00 -9°C° 0.1 mm 2 mps 593 mmHg 90%
    19:00 -9°C° 0.1 mm 2 mps 593 mmHg 91%
    20:00 -9°C° 0 mm 1 mps 593 mmHg 92%
    21:00 -9°C° 0 mm 1 mps 593 mmHg 92%
    22:00 -9°C° 0 mm 1 mps 593 mmHg 93%
    23:00 -10°C° 0 mm 1 mps 592 mmHg 93%

    Tomorrow, 3 December, Saturday

    Time Temperature Precipitation Wind Pressure Humidity
    00:00 -11°C° 0 mm 1 mps 592 mmHg 94%
    01:00 -12°C° 0 mm 1 mps 591 mmHg 95%
    02:00 -12°C° 0 mm 1 mps 591 mmHg 95%
    03:00 -13°C° 0 mm 0 mps 591 mmHg 95%
    04:00 -14°C° 0 mm 0 mps 590 mmHg 96%
    05:00 -14°C° 0 mm 0 mps 590 mmHg 96%
    06:00 -14°C° 0 mm 0 mps 590 mmHg 96%
    07:00 -14°C° 0 mm 0 mps 590 mmHg 96%
    08:00 -11°C° 0 mm 0 mps 592 mmHg 91%
    09:00 -8°C° 0 mm 0 mps 594 mmHg 87%
    10:00 -6°C° 0 mm 1 mps 596 mmHg 82%
    11:00 -4°C° 0 mm 1 mps 596 mmHg 81%
    12:00 -3°C° 0 mm 1 mps 596 mmHg 80%
    13:00 -2°C° 0 mm 1 mps 596 mmHg 79%
    14:00 -4°C° 0 mm 1 mps 596 mmHg 84%
    15:00 -7°C° 0 mm 1 mps 595 mmHg 90%
    16:00 -9°C° 0 mm 1 mps 594 mmHg 95%
    17:00 -10°C° 0 mm 1 mps 594 mmHg 95%
    18:00 -10°C° 0 mm 1 mps 594 mmHg 96%
    19:00 -11°C° 0 mm 1 mps 594 mmHg 96%
    20:00 -11°C° 0 mm 1 mps 594 mmHg 95%
    21:00 -11°C° 0 mm 1 mps 595 mmHg 94%
    22:00 -10°C° 0 mm 1 mps 595 mmHg 92%
    23:00 -10°C° 0 mm 1 mps 595 mmHg 92%

    Day after tomorrow, 4 December, Sunday

    Time Temperature Precipitation Wind Pressure Humidity
    00:00 -10°C° 0 mm 1 mps 595 mmHg 91%
    01:00 -12°C° 0 mm 2 mps 595 mmHg 90%
    02:00 -12°C° 0 mm 2 mps 595 mmHg 90%
    03:00 -12°C° 0 mm 2 mps 595 mmHg 90%
    04:00 -12°C° 0 mm 2 mps 595 mmHg 90%
    05:00 -10°C° 0 mm 1 mps 595 mmHg 90%
    06:00 -11°C° 0 mm 1 mps 595 mmHg 90%
    07:00 -11°C° 0 mm 1 mps 595 mmHg 90%
    08:00 -9°C° 0 mm 1 mps 596 mmHg 86%
    09:00 -7°C° 0 mm 1 mps 597 mmHg 82%
    10:00 -4°C° 0 mm 1 mps 599 mmHg 77%
    11:00 -3°C° 0 mm 1 mps 599 mmHg 77%
    12:00 -2°C° 0 mm 1 mps 599 mmHg 76%
    13:00 -1°C° 0 mm 1 mps 599 mmHg 76%
    14:00 -3°C° 0 mm 1 mps 598 mmHg 82%
    15:00 -7°C° 0 mm 1 mps 597 mmHg 88%
    16:00 -9°C° 0 mm 1 mps 596 mmHg 94%
    17:00 -10°C° 0 mm 1 mps 596 mmHg 93%
    18:00 -10°C° 0 mm 1 mps 596 mmHg 93%
    19:00 -11°C° 0 mm 1 mps 596 mmHg 93%
    20:00 -10°C° 0 mm 1 mps 596 mmHg 91%
    21:00 -10°C° 0 mm 1 mps 596 mmHg 89%
    22:00 -10°C° 0 mm 2 mps 597 mmHg 86%
    23:00 -10°C° 0 mm 2 mps 597 mmHg 86%

    5 December, Monday

    Time Temperature Precipitation Wind Pressure Humidity
    00:00 -10°C° 0 mm 2 mps 597 mmHg 86%
    01:00 -10°C° 0 mm 2 mps 597 mmHg 86%
    02:00 -10°C° 0 mm 2 mps 597 mmHg 87%
    03:00 -10°C° 0 mm 2 mps 597 mmHg 88%
    04:00 -10°C° 0 mm 2 mps 597 mmHg 89%
    05:00 -10°C° 0 mm 1 mps 596 mmHg 90%
    06:00 -11°C° 0 mm 1 mps 596 mmHg 90%
    07:00 -11°C° 0 mm 1 mps 596 mmHg 91%
    08:00 -9°C° 0 mm 1 mps 597 mmHg 86%
    09:00 -6°C° 0 mm 1 mps 598 mmHg 82%
    10:00 -3°C° 0 mm 1 mps 600 mmHg 78%
    11:00 -2°C° 0 mm 1 mps 600 mmHg 76%
    12:00 -1°C° 0 mm 1 mps 600 mmHg 75%
    13:00 -1°C° 0 mm 0 mps 600 mmHg 74%
    14:00 -4°C° 0 mm 0 mps 599 mmHg 80%
    15:00 -7°C° 0 mm 0 mps 597 mmHg 87%
    16:00 -10°C° 0 mm 0 mps 595 mmHg 93%
    17:00 -11°C° 0 mm 0 mps 595 mmHg 93%
    18:00 -11°C° 0 mm 0 mps 595 mmHg 93%
    19:00 -12°C° 0 mm 1 mps 594 mmHg 92%
    20:00 -12°C° 0 mm 1 mps 595 mmHg 90%
    21:00 -11°C° 0 mm 1 mps 595 mmHg 87%
    22:00 -11°C° 0 mm 1 mps 595 mmHg 84%
    23:00 -11°C° 0 mm 1 mps 596 mmHg 81%

    6 December, Tuesday

    Time Temperature Precipitation Wind Pressure Humidity
    00:00 -11°C° 0 mm 1 mps 596 mmHg 77%
    01:00 -11°C° 0 mm 1 mps 596 mmHg 73%
    02:00 -11°C° 0 mm 1 mps 596 mmHg 71%
    03:00 -10°C° 0 mm 1 mps 596 mmHg 69%
    04:00 -10°C° 0 mm 1 mps 596 mmHg 66%
    05:00 -10°C° 0 mm 1 mps 596 mmHg 66%
    06:00 -10°C° 0 mm 1 mps 596 mmHg 65%
    07:00 -10°C° 0 mm 1 mps 596 mmHg 64%
    08:00 -8°C° 0 mm 1 mps 598 mmHg 62%
    09:00 -6°C° 0 mm 1 mps 599 mmHg 61%
    10:00 -3°C° 0 mm 1 mps 600 mmHg 59%
    11:00 -2°C° 0 mm 1 mps 600 mmHg 60%
    12:00 -1°C° 0 mm 1 mps 600 mmHg 62%
    13:00 0°C° 0 mm 1 mps 601 mmHg 63%
    14:00 -2°C° 0 mm 1 mps 600 mmHg 66%
    15:00 -4°C° 0 mm 1 mps 598 mmHg 69%
    16:00 -7°C° 0 mm 1 mps 597 mmHg 72%
    17:00 -7°C° 0 mm 1 mps 597 mmHg 72%
    18:00 -8°C° 0 mm 1 mps 598 mmHg 72%
    19:00 -8°C° 0 mm 1 mps 598 mmHg 71%
    20:00 -8°C° 0 mm 1 mps 598 mmHg 70%
    21:00 -8°C° 0 mm 1 mps 598 mmHg 70%
    22:00 -7°C° 0 mm 1 mps 598 mmHg 69%
    23:00 -7°C° 0 mm 1 mps 599 mmHg 70%

    7 December, Wednesday

    Time Temperature Precipitation Wind Pressure Humidity
    00:00 -7°C° 0 mm 1 mps 599 mmHg 71%
    01:00 -6°C° 0 mm 1 mps 599 mmHg 72%
    02:00 -7°C° 0 mm 1 mps 599 mmHg 73%
    03:00 -7°C° 0 mm 1 mps 599 mmHg 75%
    04:00 -7°C° 0 mm 1 mps 599 mmHg 77%
    05:00 -7°C° 0.1 mm 1 mps 599 mmHg 79%
    06:00 -6°C° 0.1 mm 1 mps 600 mmHg 80%
    07:00 -6°C° 0.1 mm 1 mps 600 mmHg 82%
    08:00 -4°C° 0.1 mm 1 mps 601 mmHg 81%
    09:00 -3°C° 0.1 mm 1 mps 601 mmHg 80%
    10:00 -2°C° 0.1 mm 1 mps 602 mmHg 79%
    11:00 -2°C° 0 mm 1 mps 602 mmHg 78%
    12:00 -2°C° 0 mm 0 mps 603 mmHg 78%
    13:00 -2°C° 0 mm 0 mps 603 mmHg 77%
    14:00 -4°C° 0 mm 0 mps 602 mmHg 83%
    15:00 -6°C° 0 mm 0 mps 601 mmHg 88%
    16:00 -8°C° 0 mm 0 mps 600 mmHg 93%
    17:00 -9°C° 0 mm 0 mps 600 mmHg 94%
    18:00 -10°C° 0 mm 0 mps 600 mmHg 94%
    19:00 -11°C° 0 mm 0 mps 600 mmHg 94%
    20:00 -11°C° 0 mm 1 mps 600 mmHg 94%
    21:00 -11°C° 0 mm 1 mps 600 mmHg 93%
    22:00 -11°C° 0 mm 1 mps 600 mmHg 93%
    23:00 -11°C° 0 mm 1 mps 600 mmHg 93%
    Show more